| time (UTC) | temp F | wind direction | speed knots | gust knots | rain 1hr in | rain 24hr in | rain mn in | humidity % | barometer mb |
| 20260505000021 | 65 | 224 | 0.0 | 0.0 | 0.04 | 1.38 | 0.16 | 73 | 1020.7 |
| 20260504235033 | 65 | 207 | 0.0 | 0.0 | 0.04 | 1.38 | 0.16 | 76 | 1020.6 |
| 20260504234022 | 65 | 205 | 0.0 | 0.0 | 0.04 | 1.38 | 0.16 | 77 | 1020.3 |
| 20260504233020 | 64 | 214 | 0.0 | 0.0 | 0.04 | 1.38 | 0.16 | 79 | 1020.5 |
| 20260504232037 | 64 | 212 | 0.0 | 0.0 | 0.04 | 1.38 | 0.16 | 80 | 1020.5 |
| 20260504231035 | 64 | 213 | 0.0 | 0.0 | 0.04 | 1.38 | 0.16 | 82 | 1020.7 |
| 20260504230056 | 64 | 360 | 0.0 | 0.0 | 0.00 | 1.34 | 0.15 | 85 | 1020.7 |
| 20260504225030 | 63 | 203 | 0.0 | 0.0 | 0.00 | 1.34 | 0.15 | 87 | 1020.5 |
| 20260504224045 | 63 | 209 | 0.0 | 0.0 | 0.00 | 1.34 | 0.15 | 93 | 1020.3 |
| 20260504223039 | 63 | 207 | 0.0 | 0.0 | 0.00 | 1.34 | 0.15 | 94 | 1020.1 |
| 20260504222019 | 64 | 219 | 0.0 | 0.0 | 0.00 | 1.34 | 0.15 | 96 | 1020.0 |
| 20260504221033 | 63 | 215 | 0.0 | 0.0 | 0.00 | 1.34 | 0.15 | 96 | 1019.9 |
| 20260504220030 | 63 | 222 | 0.0 | 0.0 | 0.00 | 1.34 | 0.15 | 96 | 1019.7 |
| 20260504215021 | 63 | 224 | 0.0 | 0.0 | 0.00 | 1.34 | 0.15 | 96 | 1019.5 |
| 20260504214039 | 63 | 223 | 0.0 | 0.0 | 0.00 | 1.34 | 0.15 | 96 | 1019.3 |
| 20260504213032 | 63 | 226 | 0.0 | 0.0 | 0.00 | 1.34 | 0.15 | 96 | 1019.1 |
| 20260504212026 | 63 | 226 | 0.0 | 0.0 | 0.00 | 1.34 | 0.15 | 96 | 1018.9 |
| 20260504211020 | 63 | 228 | 0.0 | 0.0 | 0.00 | 1.34 | 0.15 | 96 | 1018.7 |
| 20260504210036 | 64 | 231 | 0.0 | 0.0 | 0.00 | 1.34 | 0.15 | 96 | 1018.4 |
| 20260504205030 | 64 | 232 | 0.0 | 0.0 | 0.00 | 1.34 | 0.15 | 96 | 1018.7 |
| 20260504204023 | 64 | 236 | 0.0 | 0.0 | 0.00 | 1.34 | 0.15 | 96 | 1018.5 |
| 20260504203018 | 64 | 242 | 0.0 | 0.0 | 0.00 | 1.34 | 0.15 | 96 | 1018.3 |
| 20260504202033 | 64 | 253 | 0.0 | 0.0 | 0.00 | 1.34 | 0.15 | 96 | 1018.1 |
| 20260504201026 | 64 | 255 | 0.0 | 0.0 | 0.00 | 1.34 | 0.15 | 96 | 1017.9 |
| 20260504200019 | 64 | 255 | 0.0 | 0.0 | 0.00 | 1.34 | 0.15 | 96 | 1017.9 |
| 20260504195037 | 64 | 256 | 0.0 | 0.0 | 0.00 | 1.34 | 0.15 | 96 | 1017.8 |
| 20260504194054 | 64 | 267 | 0.0 | 0.0 | 0.00 | 1.34 | 0.15 | 96 | 1017.7 |
| 20260504193050 | 64 | 260 | 0.0 | 0.0 | 0.00 | 1.34 | 0.15 | 96 | 1017.5 |
| 20260504192048 | 64 | 267 | 0.0 | 0.0 | 0.00 | 1.34 | 0.15 | 96 | 1017.3 |
| 20260504191020 | 64 | 259 | 0.0 | 0.0 | 0.00 | 1.34 | 0.15 | 96 | 1017.3 |
| 20260504190037 | 64 | 268 | 0.0 | 0.0 | 0.00 | 1.34 | 0.15 | 96 | 1017.2 |
| 20260504185055 | 63 | 261 | 0.0 | 0.0 | 0.00 | 1.34 | 0.15 | 96 | 1017.1 |
| 20260504184027 | 64 | 262 | 0.0 | 0.0 | 0.00 | 1.34 | 0.15 | 96 | 1017.1 |
| 20260504183023 | 64 | 263 | 0.0 | 0.0 | 0.00 | 1.34 | 0.15 | 96 | 1017.1 |
| 20260504182039 | 64 | 265 | 0.0 | 0.0 | 0.00 | 1.34 | 0.15 | 96 | 1016.9 |
| 20260504181030 | 64 | 265 | 0.0 | 0.0 | 0.00 | 1.34 | 0.15 | 96 | 1016.7 |
| 20260504180024 | 64 | 265 | 0.0 | 0.0 | 0.00 | 1.34 | 0.15 | 96 | 1016.9 |
| 20260504175039 | 64 | 265 | 0.0 | 0.0 | 0.00 | 1.34 | 0.15 | 96 | 1017.0 |
| 20260504174034 | 64 | 265 | 0.0 | 0.0 | 0.04 | 1.34 | 0.15 | 96 | 1017.1 |
| 20260504173027 | 64 | 265 | 0.0 | 0.0 | 0.12 | 1.34 | 0.15 | 96 | 1016.8 |
| 20260504172043 | 64 | 265 | 0.0 | 0.0 | 0.31 | 1.34 | 0.15 | 96 | 1016.9 |
| 20260504171035 | 64 | 265 | 0.0 | 0.0 | 0.47 | 1.34 | 0.15 | 96 | 1017.0 |
| 20260504151020 | 65 | 263 | 0.0 | 0.0 | 0.00 | 0.59 | 0.00 | 95 | 1016.5 |
| 20260504141035 | 65 | 275 | 0.0 | 0.0 | 0.20 | 0.59 | 0.12 | 95 | 1016.4 |
| 20260504081027 | 71 | 63 | 0.0 | 0.0 | 0.00 | 0.00 | 0.00 | 88 | 1016.7 |
| 20260504045042 | 79 | 44 | 0.0 | 0.0 | 0.00 | 0.00 | 0.00 | 59 | 1015.6 |
| 20260504044019 | 79 | 44 | 0.0 | 0.0 | 0.00 | 0.00 | 0.00 | 55 | 1015.6 |
| 20260504043037 | 80 | 43 | 0.0 | 0.0 | 0.00 | 0.00 | 0.00 | 54 | 1015.7 |
| 20260504042029 | 80 | 43 | 0.0 | 0.0 | 0.00 | 0.00 | 0.00 | 52 | 1015.9 |
| 20260504041025 | 80 | 43 | 0.0 | 0.0 | 0.00 | 0.00 | 0.00 | 54 | 1016.0 |
| 20260504040021 | 80 | 43 | 0.0 | 0.0 | 0.00 | 0.00 | 0.00 | 54 | 1016.1 |
| 20260504035032 | 81 | 43 | 0.0 | 0.0 | 0.00 | 0.00 | 0.00 | 52 | 1016.1 |
| 20260504034025 | 81 | 44 | 0.0 | 0.0 | 0.00 | 0.00 | 0.00 | 52 | 1016.2 |
| 20260504033042 | 81 | 350 | 0.0 | 0.0 | 0.00 | 0.00 | 0.00 | 51 | 1016.3 |
| 20260504032038 | 83 | 350 | 0.0 | 0.0 | 0.00 | 0.00 | 0.00 | 51 | 1016.5 |
| 20260504031037 | 82 | 350 | 0.0 | 0.0 | 0.00 | 0.00 | 0.00 | 51 | 1016.6 |
| 20260504030030 | 82 | 351 | 0.0 | 0.0 | 0.00 | 0.00 | 0.00 | 51 | 1016.8 |
| 20260504025022 | 82 | 351 | 0.0 | 0.0 | 0.00 | 0.00 | 0.00 | 51 | 1016.8 |
| 20260504024041 | 81 | 351 | 0.0 | 0.0 | 0.00 | 0.00 | 0.00 | 52 | 1016.9 |
| 20260504023035 | 82 | 350 | 0.0 | 0.0 | 0.00 | 0.00 | 0.00 | 53 | 1017.1 |
| 20260504022032 | 81 | 351 | 0.0 | 0.0 | 0.00 | 0.00 | 0.00 | 54 | 1017.2 |
| 20260504021027 | 80 | 355 | 0.0 | 0.0 | 0.00 | 0.00 | 0.00 | 55 | 1017.3 |
| 20260504020025 | 81 | 355 | 0.0 | 0.0 | 0.00 | 0.00 | 0.00 | 54 | 1017.6 |
| 20260504015019 | 81 | 355 | 0.0 | 0.0 | 0.00 | 0.00 | 0.00 | 54 | 1017.7 |
| 20260504014100 | 81 | 355 | 0.0 | 0.0 | 0.00 | 0.00 | 0.00 | 55 | 1018.0 |
| 20260504013036 | 80 | 355 | 0.0 | 0.0 | 0.00 | 0.00 | 0.00 | 56 | 1018.1 |
| 20260504012031 | 80 | 355 | 0.0 | 0.0 | 0.00 | 0.00 | 0.00 | 58 | 1018.3 |
| 20260504011023 | 79 | 9 | 0.0 | 0.0 | 0.00 | 0.00 | 0.00 | 60 | 1018.3 |
| 20260504010018 | 78 | 360 | 0.0 | 0.0 | 0.00 | 0.00 | 0.00 | 62 | 1018.4 |
| 20260504005034 | 77 | 360 | 0.0 | 0.0 | 0.00 | 0.00 | 0.00 | 64 | 1018.5 |
| 20260504004030 | 76 | 350 | 0.0 | 0.0 | 0.00 | 0.00 | 0.00 | 67 | 1018.6 |
| 20260504003024 | 76 | 355 | 0.0 | 0.0 | 0.00 | 0.00 | 0.00 | 65 | 1018.6 |
| 20260504002019 | 76 | 351 | 0.0 | 0.0 | 0.00 | 0.00 | 0.00 | 66 | 1018.7 |
| 20260504001035 | 76 | 5 | 0.0 | 0.0 | 0.00 | 0.00 | 0.00 | 67 | 1018.7 |